www.pogodaiklimat.ru

Погода и климат >> Архив погоды >> Парагвай >> Caazapa


ПОГОДА в Caazapa

  • Прогноз погоды в Caazapa
  • Монитор погоды в Caazapa
  • Климат города

АРХИВ ПОГОДЫ в Caazapa

Время (UTC), дата Ветер
(напр.,м/с)
 
Видим.   Явления Облачность Т
(С)
Тd
(С)
f
(%)
Тe
(С)
Тes
(С)
Комфортность P
(гПа)
Po
(гПа)
Тmin
(С)
Tmax
(С)
R
(мм)
R24
(мм)
S
(см)
18 11.12 СВ 3 20 км ясно +35.0 +16.3 33 +38 +51 опасность
солнечного
удара
1012.4 996.6
21 11.12 СВ 2 20 км 8/8 1200 м
[Cu med, cong]
+34.8 +16.5 34 +38 +38 очень
душно
1012.1 996.4
00 12.12 штиль 0 20 км ясно +30.6 +18.7 49 +36 +36 очень
душно
1010.4 994.4 +35.0
03 12.12 штиль 0 20 км ясно +29.4 +19.6 56 +35 +35 очень
душно
1009.6 993.5
09 12.12 штиль 0 20 км ясно +26.4 +19.4 65 +32 +32 очень
душно
1009.2 993.0
12 12.12 штиль 0 20 км 5/0
[Ci sp]
+26.8 +19.4 64 +32 +43 очень
душно
1012.0 995.7 +24.0
15 12.12 СЗ 3 20 км 10/0 2000 м
[Ac und]
+33.0 +22.7 55 +43 +48 опасность
перегрева
1013.1 997.2
18 12.12 СЗ 3 20 км 10/3 1000 м
[Cb calv Cs]
+34.4 +22.4 50 +44 +51 опасность
перегрева
1011.9 996.0
21 12.12 ЮЗ 6 15 км гроза, ливневой дождь 10/1 1200 м
[Cb cap Ac As]
+22.0 +21.8 99 +29 +29 очень
душно
1012.9 996.4 14
00 13.12 В 3 20 км {гроза} 4/0 1500 м
[Ac und Cs]
+22.0 +21.8 99 +29 +29 очень
душно
1009.9 993.4 +36.0 2
03 13.12 штиль 0 20 км ясно +20.2 +19.0 93 +24 +24 комфорт 1012.0 995.4
06 13.12 штиль 0 20 км ясно +20.4 +19.8 96 +24 +24 комфорт 1010.4 993.8
09 13.12 В 3 20 км 4/0 1500 м
[Ac und]
+20.0 +19.9 99 +24 +24 комфорт 1010.4 993.8
12 13.12 С 3 20 км 9/0 1500 м
[Ac und]
+24.0 +22.4 91 +31 +34 очень
душно
1011.7 995.3 +20.0 16
15 13.12 С 5 20 км 4/1 1000 м
[Cu med, cong Cs]
+32.0 +23.3 60 +43 +52 опасность
перегрева
1010.7 994.8
18 13.12 С 6 20 км 4/4 1000 м
[Cu med, cong]
+34.6 +23.7 53 +46 +49 опасность
перегрева
1007.1 991.4
21 13.12 В 5 20 км 1/1 1000 м
[Cb calv]
+35.0 +23.6 52 +46 +47 опасность
перегрева
1005.7 989.7
00 14.12 В 3 20 км ясно +29.6 +21.4 61 +37 +37 очень
душно
1005.7 989.7 +35.6
09 14.12 С 6 20 км 4/0
[Cc]
+27.0 +20.7 68 +34 +34 очень
душно
1005.6 989.5
12 14.12 С 6 20 км 3/0
[Ci fib]
+30.2 +21.1 58 +38 +41 очень
душно
1008.5 992.5 +22.0
18 14.12 С 7 20 км 3/3 1000 м
[Cu med, cong]
+35.2 +21.6 45 +43 +46 опасность
перегрева
1008.4 992.4
21 14.12 С 4 20 км 3/0
[Ci]
+35.0 +22.9 50 +45 +47 опасность
перегрева
1007.5 991.7
00 15.12 С 3 20 км зарница 1/1 1200 м
[Cb cap]
+30.0 +21.0 59 +38 +38 очень
душно
1008.2 992.2 +36.0
03 15.12 С 3 20 км ясно +28.0 +22.5 72 +37 +37 очень
душно
1010.0 992.4
06 15.12 С 2 20 км ясно +27.0 +22.5 76 +35 +35 очень
душно
1010.5 993.0
09 15.12 С 4 20 км 4/3 1000 м
[Cb calv Cc]
+27.0 +21.0 70 +34 +34 очень
душно
1010.8 994.6
12 15.12 ЮЗ 7 20 км 10/6 630 м
[Sc Ac As]
+25.2 +23.3 89 +34 +34 очень
душно
1015.8 999.4 +25.2
15 15.12 Ю 7 20 км {гроза} 10/6 1000 м
[Cu Sc Ac As]
+23.2 +20.0 82 +30 +31 очень
душно
1018.4 1001.8 4
18 15.12 Ю 6 20 км 10/10 700 м
[Sc]
+26.6 +22.3 77 +35 +35 очень
душно
1016.6 1000.3
21 15.12 В 4 20 км 4/0 2000 м
[Ac und Cs]
+28.8 +23.3 72 +39 +40 очень
душно
1010.4 994.3
00 16.12 Ю 3 20 км 9/0 2000 м
[Ac und]
+26.4 +24.3 88 +37 +37 очень
душно
1012.9 996.6 +30.0
03 16.12 Ю 3 20 км 9/0 1500 м
[Ac und]
+26.0 +24.4 91 +36 +36 очень
душно
1013.4 996.9
06 16.12 СВ 4 20 км 5/0 1500 м
[Ac und]
+23.6 +22.6 94 +31 +31 очень
душно
1013.2 996.9
09 16.12 штиль 0 20 км 4/0
[Cs]
+23.2 +22.7 97 +32 +32 очень
душно
1013.4 996.9
12 16.12 В 4 20 км 4/4
[Cu med, cong Ac As]
+28.6 +23.5 74 +39 +42 очень
душно
1014.3 998.2 +23.2 40
15 16.12 С 6 20 км 4/1 800 м
[Cu hum Cc]
+33.0 +22.9 55 +43 +50 опасность
перегрева
1013.9 998.0
18 16.12 СЗ 6 20 км 4/4 800 м
[Cu med, cong]
+34.8 +23.8 53 +46 +50 опасность
перегрева
1011.9 996.1
21 16.12 СЗ 4 20 км 4/3 1000 м
[Cb calv Cs]
+35.0 +23.7 52 +46 +47 опасность
перегрева
1008.8 993.1
00 17.12 штиль 0 20 км зарница 1/1 1200 м
[Cb cap]
+29.6 +24.6 75 +42 +42 опасность
перегрева
1010.1 994.1 +35.3
03 17.12 штиль 0 20 км ясно +28.0 +23.5 77 +38 +38 очень
душно
1010.5 994.4
06 17.12 штиль 0 20 км 4/0 2000 м
[Ac und]
+25.0 +22.0 83 +32 +32 очень
душно
1010.5 994.2
09 17.12 СВ 4 20 км 4/0 2000 м
[Ac und]
+25.4 +21.8 80 +33 +33 очень
душно
1010.5 994.2
12 17.12 С 5 20 км 4/0
[Cs]
+30.2 +22.7 64 +40 +44 очень
душно
1011.7 995.6 +25.0
15 17.12 СЗ 8 20 км 4/1 800 м
[Cu hum Ci]
+34.0 +24.0 56 +46 +49 опасность
перегрева
1011.5 995.6
18 17.12 С 6 20 км 3/1 800 м
[Cu med, cong Cs]
+35.8 +19.7 39 +41 +47 опасность
перегрева
1009.1 993.4
21 17.12 С 6 20 км ясно +35.6 +22.6 47 +45 +46 опасность
перегрева
1007.2 991.4
00 18.12 штиль 0 20 км ясно +30.4 +22.3 62 +39 +39 очень
душно
1008.6 991.4 +36.3
03 18.12 С 4 20 км зарница 1/1 1200 м
[Cb cap]
+30.0 +20.9 58 +37 +37 очень
душно
1008.7 992.7
06 18.12 В 3 20 км зарница 1/1 1200 м
[Cb cap]
+29.0 +21.6 64 +37 +37 очень
душно
1008.7 992.7
09 18.12 ЮЗ 3 20 км 4/0
[Ci]
+24.2 +22.4 90 +32 +32 очень
душно
1008.9 992.6
12 18.12 ЮЗ 5 20 км 6/1 1000 м
[Cb calv Ac und]
+25.0 +20.6 77 +31 +34 очень
душно
1013.3 996.9 +24.0
15 18.12 СЗ 4 20 км 4/1 1000 м
[Cu med, cong Cs]
+29.8 +22.8 66 +39 +51 опасность
солнечного
удара
1012.9 996.0

 

Местоположение метеостанции Caazapa (Парагвай): широта -26.18 долгота -56.35 высота над уровнем моря 500 м.

В архиве по умолчанию представлена погода в Caazapa за последнюю неделю. Архивные данные за месяц целиком и за предыдущие месяцы, начиная с января 2011 года, Вы можете получить, выбрав интересующий диапазон дат из раскрывающегося списка и нажав кнопку "Ввод!".


*Определитесь, кто Вы:
робот инопланетянин человек

Внимание! Время в таблицах - всемирное. Для получения местного времени необходимо прибавить поправку, которая в Caazapa равна -4 ч.

Смотрите также архив погоды в соседних городах и на ближайших метеорологических станциях:

Погода в Villarrica (Парагвай) (48 км)
Погода в Quyquyhat (Парагвай) (63 км)
Погода в Coronel Oviedo (Парагвай) (81 км)
Погода в San Juan Bautista Misiones (Парагвай) (96 км)
Погода в Paraguari (Парагвай) (99 км)
Погода в Encarnacion (Парагвай) (136 км)
Погода в Posadas (Аргентина) (137 км)
Погода в Capitan Meza (Парагвай) (142 км)
Погода в Asuncion (Парагвай) (156 км)
Погода в San Estanislao (Парагвай) (170 км)

Пояснения к столбцам:

Ветер - указаны скорость ветра в м/с - средняя за 10 мин, порывы в срок и между сроками (в фигурных скобках) и направление, откуда дует ветер: С - северный, СВ - северо-восточный, В - восточный, ЮВ - юго-восточный, Ю - южный, ЮЗ - юго-западный, З - западный, СЗ - северо-западный.
Видимость - горизонтальная дальность видимости в метрах или километрах. При видимости от 1 до 10 км при отсутствии осадков обычно наблюдается дымка, при ухудшении видимости до 1 км и менее - туман. В сухую погоду видимость может ухудшаться дымом, пылью или мглою.
Явления - указаны атмосферные явления, наблюдавшиеся в срок или в последний час перед сроком; фигурными скобками обозначены явления, наблюдавшиеся между сроками (за 1-3 часа до срока); квадратными скобками обозначены град или гололедные отложения с указанием их диаметра в мм.
Облачность - указаны через наклонную черту общая и нижняя облачность в баллах и высота нижней границы облаков в метрах; квадратными скобками обозначены формы облаков: Ci - перистые, Cs - перисто-слоистые, Cc - перисто-кучевые, Ac - высококучевые, As - высокослоистые, Sc - слоисто-кучевые, Ns - слоисто-дождевые, Cu - кучевые, Cb - кучево-дождевые. Подробнее классификацию облаков см. в Атласе облаков (PDF).
T - Температура воздуха - температура, измеренная на высоте 2 м над землей.
Td - Температура точки росы - температура, при понижении до которой содержащийся в воздухе водяной пар достигнет насыщения.
f - Относительная влажность воздуха - влажноcть воздуха, измеренная на высоте 2 м над землей.
Te - Эффективная температура - температура, которую ощущает одетый по сезону человек в тени. Характеристика душности погоды. При расчете учитывается влияние влажности воздуха и скорости ветра на теплоощущения человека.
Tes - Эффективная температура на солнце - температура, которую ощущает человек, с поправкой на солнечный нагрев. Характеристика знойности погоды. Зависит от высоты солнца над горизонтом, облачности и скорости ветра. Ночью, в пасмурную погоду, а также при ветре 12 м/с и более поправка равна нулю.
P - Атмосферное давление - приведенное к уровню моря атмосферное давление.
Po - Атмосферное давление - измеренное на уровне метеостанции атмосферное давление.
Tmin - Минимальная температура - минимум температуры воздуха на высоте 2 м над землей.
Tmax - Максимальная температура - максимум температуры воздуха на высоте 2 м над землей.
R - Количество осадков - Количество выпавших осадков за период времени, мм. При наведении курсора мыши на число - период времени, за который выпало указанное количество осадков.
R24 - Количество осадков - Количество выпавших осадков за 24 часа, мм.
S - Снежный покров - Высота снежного покрова, см. При наведении курсора мыши на число - состояние снежного покрова и степень покрытия местности в баллах.